Hourly Data Report for September 02, 2018

SHEARWATER RCS
NOVA SCOTIA
Current Station Operator: ECCC - MSC

44°37'47.000" N
63°30'48.000" W
24.00 m
8205092
71264
AAW

Download Data

Hourly Data (September 2018)
Hourly Data Report for September 2, 2018
TIME Temp Definition
°C
Dew Point Definition
°C
Rel Hum Definition
%
Wind Dir Definition
10's deg

Wind Spd Definition
km/h
Visibility Definition
km
Stn Press Definition
kPa
Hmdx Definition


Wind Chill Definition


Weather Definition


00:00 14.4 12.6 89   0   102.38     LegendNANA
01:00 14.7 13.2 91 34 2   102.39     LegendNANA
02:00 13.7 12.4 92 11 2   102.33     LegendNANA
03:00 13.9 12.6 92 0 1   102.35     LegendNANA
04:00 14.0 12.7 91 28 4   102.36     LegendNANA
05:00 13.6 12.3 92 0 1   102.33     LegendNANA
06:00 13.8 12.7 93 35 2   102.33     LegendNANA
07:00 16.7 14.3 86 32 3   102.38     LegendNANA
08:00 19.2 15.1 77 18 6   102.38     LegendNANA
09:00 20.4 14.6 69 20 8   102.36     LegendNANA
10:00 21.6 14.7 65 16 11   102.34 25   LegendNANA
11:00 23.1 12.5 51 20 14   102.30 26   LegendNANA
12:00 23.0 13.2 54 16 18   102.26 26   LegendNANA
13:00 23.0 14.0 57 17 19   102.23 26   LegendNANA
14:00 23.0 11.9 50 19 19   102.23 25   LegendNANA
15:00 22.1 13.0 56 19 21   102.21 25   LegendNANA
16:00 21.5 13.9 62 20 19   102.18 25   LegendNANA
17:00 21.3 14.3 64 21 18   102.19 25   LegendNANA
18:00 20.3 14.6 70 20 15   102.19     LegendNANA
19:00 19.2 15.1 77 19 10   102.16     LegendNANA
20:00 18.6 15.2 81 18 7   102.21     LegendNANA
21:00 18.4 15.3 82 21 6   102.24     LegendNANA
22:00 18.2 15.2 83 18 8   102.23     LegendNANA
23:00 17.3 14.7 85 32 1   102.28     LegendNANA

Notes on Data Quality.

Legend

  • E = Estimated
  • M = Missing
  • NA = Not Available*
  • [empty] = Indicates an unobserved value
Date modified: